Regional Weather Roundup
Issued by NWS

Home | Current Version | Previous Version | Text Only | Print | Product List | Glossary On
Versions: 1 2 3 4 5 6 7 8 9 10 11 12 13 14 15 16 17 18 19 20 21 22 23 24 25 26 27 28 29 30 31 32 33 34 35 36 37 38 39 40 41 42 43 44 45 46 47 48 49 50
000
ASUS43 KLOT 251709
RWRIL

ILLINOIS REGIONAL WEATHER ROUNDUP
NATIONAL WEATHER SERVICE CHICAGO/ROMEOVILLE IL
1200 PM CDT SUN SEP 25 2016

NOTE: "FAIR" INDICATES FEW OR NO CLOUDS BELOW 12,000 FEET WITH NO
SIGNIFICANT WEATHER AND/OR OBSTRUCTIONS TO VISIBILITY.

* THESE STATIONS ARE NOT UNDER NWS QUALITY CONTROL. THEY ALSO MAY NOT
  REPORT WEATHER SUCH AS PRECIPITATION OR FOG.

ILZ001-002-007-009-015-016-024-251800-
NORTHWEST ILLINOIS

CITY           SKY/WX    TMP DP  RH WIND       PRES   REMARKS
MOLINE         PTSUNNY   83  70  64 W13       29.98F HX  87
STERLING*      MOSUNNY   84  71  65 VRB5      29.99F HX  89
SAVANNA*       SUNNY     81  70  69 S14       29.97F HX  85
$$

ILZ003-004-008-010-011-017-018-251800-
NORTH CENTRAL ILLINOIS

CITY           SKY/WX    TMP DP  RH WIND       PRES   REMARKS
ROCKFORD       PTSUNNY   81  68  64 S15       30.01F HX  84
FREEPORT*      MOSUNNY   81  69  65 S15G21    30.00F HX  84
ROCHELLE*      MOSUNNY   82  67  61 S10G23    30.02F HX  85
DE KALB*       MOSUNNY   79  68  69 S13G18    30.04F HX  81
$$

ILZ005-006-012>014-019>023-251800-
NORTHEAST ILLINOIS

CITY           SKY/WX    TMP DP  RH WIND       PRES   REMARKS
CHICAGO-OHARE  MOSUNNY   78  65  63 S10       30.03F HX  80
CHICAGO-MIDWAY CLOUDY    80  63  55 SE10      30.04F HX  81
AURORA         CLOUDY    81  66  60 S10       30.04F HX  83
LANSING*       SUNNY     80  67  64 S7        30.06F HX  82
JOLIET*        PTSUNNY   82  69  65 S7        30.04S HX  85
WAUKEGAN       MOSUNNY   71  61  70 SE8       30.03F
DUPAGE AIRPORT CLOUDY    77  65  66 S9        30.03F
KANKAKEE*      MOSUNNY   85  67  54 SE10      30.05F HX  88
WHEELING       MOSUNNY   77  64  64 SE13      30.05F
MORRIS*        PTSUNNY   83  67  56 S3        30.02F HX  86
ROMEOVILLE*    MOSUNNY   79  68  69 S7        30.04F HX  82
NORTHERLY ISL    N/A     74  63  68 E10         N/A
$$

LMZ740>746-251800-
SOUTHERN LAKE MICHIGAN

STATION/POSITION SKY/WX   TEMP    WIND        PRES    VSBY  WAVE
                          AIR SEA DIR/SP/G                  HT/PER
                          (F)     (DEG/KT/KT) (MB)    (MI)  (FT/S)
SOUTHERN BUOY              69 72  130/ 19/ 21 1017.3F         4/ 5
WILMETTE HARBOR            67 64  160/ 12/ 16   N/A           3/ 5
HARRISON CRIB              69     150/ 12/ 14   N/A
BURNHAM HARBOR             73     100/  9       N/A
CALUMET HARBOR             73     190/  7/ 10 1017.7F
BURNS HARBOR               74     170/  8/ 16 1019.0S
MICHIGAN CITY              71     130/ 12/ 15   N/A
MICHIGAN CITY 6N           71 67  150/  6/  8   N/A           1
ST. JOSEPH                 71 68  130/ 10/ 12 1018.4F         1
$$

ILZ025>027-034>036-040-047-049-050-058-095>099-251800-
WEST-CENTRAL ILLINOIS

CITY           SKY/WX    TMP DP  RH WIND       PRES   REMARKS
QUINCY         MOSUNNY   82  68  62 W12       30.05S HX  85
GALESBURG*       N/A    N/A N/A N/A SW12      30.01
MACOMB*        MOSUNNY   83  68  58 SW12      30.04F HX  86
JACKSONVILLE*  MOSUNNY   89  68  50 W15G21    30.03S HX  92
PITTSFIELD*    MOSUNNY   84  68  59 SW8       30.06S HX  87
$$

ILZ028>032-037-038-041>044-048-051>054-059>061-251800-
CENTRAL ILLINOIS

CITY           SKY/WX    TMP DP  RH WIND       PRES   REMARKS
PONTIAC        MOSUNNY   87  69  54 S13       30.03F HX  91
BLOOMINGTON    MOSUNNY   86  68  54 SW10G20   30.05F HX  89
DECATUR        SUNNY     88  67  49 S9        30.05F HX  91
PEORIA         MOSUNNY   85  69  58 S13       30.02F HX  89
LACON*           N/A     84  69  60 S8        30.00F HAZE    HX  87
SPRINGFIELD    SUNNY     90  67  46 SW14G20   30.03F HX  93
TAYLORVILLE    SUNNY     89  66  47 SW13G18   30.04F HX  91
$$

ILZ033-039-045-046-055>057-062-063-251800-
EAST-CENTRAL ILLINOIS

CITY           SKY/WX    TMP DP  RH WIND       PRES   REMARKS
CHAMPAIGN      MOSUNNY   88  65  46 S14       30.06F HX  90
RANTOUL*       SUNNY     87  69  53 S13       30.06F HX  91
MATTOON        MOSUNNY   84  67  56 S12       30.06F HX  86
PARIS*         MOSUNNY   87  68  54 SW5       30.08F HX  90
$$

ILZ079-100>102-251800-
SOUTHWEST ILLINOIS

CITY           SKY/WX    TMP DP  RH WIND       PRES   REMARKS
ALTON          MOSUNNY   84  70  61 S8        30.05F HX  88
BELLEVILLE     SUNNY     89  70  53 SW9       30.04F HX  93
CAHOKIA*       CLOUDY    87  69  54 SW5       30.04F HX  91
SPARTA*        PTSUNNY   85  71  61 S12       30.07F HX  90
$$

ILZ064>066-069>071-074>076-080>082-084>086-088>090-092>094-251800-
SOUTH-CENTRAL ILLINOIS

CITY           SKY/WX    TMP DP  RH WIND       PRES   REMARKS
CARBONDALE     MOSUNNY   86  71  60 VRB7      30.08S HX  91
CAIRO*         SUNNY     87  68  52 SE5       30.07F HX  90
EFFINGHAM*     MOSUNNY   85  72  63 SE7       30.08F HX  91
MT. VERNON     PTSUNNY   86  70  58 SW8       30.09S HX  90
CENTRALIA*     MOSUNNY   87  71  59 S6        30.06F HX  93
SALEM*         MOSUNNY   88  68  51 SW9       30.07F HX  92
METROPOLIS*    MOSUNNY   88  70  54 CALM      30.08F HX  93
$$

ILZ067-068-072-073-078-083-087-091-251800-
SOUTHEAST ILLINOIS

CITY           SKY/WX    TMP DP  RH WIND       PRES   REMARKS
LAWRENCEVILLE  SUNNY     86  67  52 S7        30.08F HX  89
FLORA*         SUNNY     88  70  55 SW9       30.08S HX  93
FAIRFIELD*     SUNNY     87  69  55 SW3       30.07S HX  91
HARRISBURG*    MOSUNNY   87  70  56 S6        30.08F HX  92
ROBINSON*      SUNNY     85  69  58 S6        30.09S HX  89
CARMI*         MOSUNNY   87  69  54 SW5       30.07S HX  91
$$

ABBREVIATIONS USED IN REMARKS
   TC - TEMPERATURE IN CELSIUS
  WCI - WIND CHILL INDEX
   HX - HEAT INDEX
  VSB - VISIBILITY
$$





USA.gov is the U.S. government's official web portal to all federal, state and local government web resources and services.